Regional Weather Roundup
Issued by NWS

Home | Current Version | Previous Version | Graphics & Text | Print | Product List | Glossary On
Versions: 1 2 3 4 5 6 7 8 9 10 11 12 13 14 15 16 17 18 19 20 21 22 23 24 25 26 27 28 29 30 31 32 33 34 35 36 37 38 39 40 41 42 43 44 45 46 47 48 49 50
484
ASUS43 KBIS 102302
RWRND

NORTH DAKOTA REGIONAL WEATHER ROUNDUP
NATIONAL WEATHER SERVICE BISMARCK ND
500 PM CST SAT DEC 10 2016

NOTE: "FAIR" INDICATES FEW OR NO CLOUDS BELOW 12,000 FEET WITH NO
SIGNIFICANT WEATHER AND/OR OBSTRUCTIONS TO VISIBILITY.


NDZ001>003-009>011-017-110000-
NORTHWEST NORTH DAKOTA

CITY           SKY/WX    TMP DP  RH WIND       PRES   REMARKS
WILLISTON      FLURRIES   2  -5  72 SE13      29.97F WCI -15
MINOT          CLOUDY    -7 -12  79 E10       30.10F WCI -25
MINOT AFB      CLOUDY    -9 -13  79 E10       30.10F WCI -27
$$

NDZ018>021-031>035-040>046-110000-
SOUTHWEST NORTH DAKOTA

CITY           SKY/WX    TMP DP  RH WIND       PRES   REMARKS
BISMARCK       CLOUDY    -4  -8  83 E13       30.08S WCI -23
DICKINSON      CLOUDY    -3  -8  79 E14       29.86F WCI -22
GARRISON         N/A     -4  -9  79 E10       30.05S WCI -21
HETTINGER ARPT CLOUDY    -2  -6  83 E14       29.86F WCI -21
$$

NDZ004>008-012>016-024-026-027-054-110000-
NORTHEAST NORTH DAKOTA

CITY           SKY/WX    TMP DP  RH WIND       PRES   REMARKS
GRAND FORKS    CLOUDY    -3  -9  75 E7        30.30F WCI -16
GRND FRKS AFB  CLOUDY    -5 -10  76 E5        30.29F WCI -15
DEVILS LAKE    CLOUDY    -4  -8  83 E10       30.19F WCI -21
$$

NDZ022-023-025-028>030-036>039-047>053-110000-
SOUTHEAST NORTH DAKOTA

CITY           SKY/WX    TMP DP  RH WIND       PRES   REMARKS
FARGO          CLOUDY     1  -6  72 NE8       30.26F WCI -13
JAMESTOWN      FLURRIES  -1  -6  79 E13       30.14F WCI -19
$$





USA.gov is the U.S. government's official web portal to all federal, state and local government web resources and services.